| time (UTC) | temp C | wind direction | speed KPH | gust KPH | rain 1hr cm | rain 24hr cm | rain mn cm | humidity % | barometer mb |
| 20260504034504 | 14 | 304 | 0.0 | 0.0 | 0.00 | 0.00 | 0.00 | 40 | 1003.8 |
| 20260504034502 | 14 | 304 | 0.0 | 1.6 | 0.00 | 0.00 | 0.00 | 40 | 1003.8 |
| 20260504033528 | 15 | 305 | 0.0 | 0.0 | 0.00 | 0.00 | 0.00 | 40 | 1003.8 |
| 20260504033003 | 14 | 306 | 0.0 | 0.0 | 0.00 | 0.00 | 0.00 | 39 | 1003.9 |
| 20260504032553 | 15 | 306 | 0.0 | 0.0 | 0.00 | 0.00 | 0.00 | 39 | 1003.9 |
| 20260504031603 | 15 | 306 | 0.0 | 1.6 | 0.00 | 0.00 | 0.00 | 38 | 1004.2 |
| 20260504031559 | 15 | 306 | 0.0 | 0.0 | 0.00 | 0.00 | 0.00 | 38 | 1004.1 |
| 20260504030547 | 15 | 288 | 0.0 | 0.0 | 0.00 | 0.00 | 0.00 | 37 | 1004.3 |
| 20260504030002 | 15 | 288 | 0.0 | 1.6 | 0.00 | 0.00 | 0.00 | 37 | 1004.4 |
| 20260504025517 | 16 | 288 | 0.0 | 0.0 | 0.00 | 0.00 | 0.00 | 37 | 1004.4 |
| 20260504024503 | 16 | 288 | 0.0 | 1.6 | 0.00 | 0.00 | 0.00 | 36 | 1004.5 |
| 20260504024456 | 16 | 288 | 0.0 | 0.0 | 0.00 | 0.00 | 0.00 | 36 | 1004.4 |
| 20260504023501 | 16 | 288 | 0.0 | 0.0 | 0.00 | 0.00 | 0.00 | 35 | 1004.3 |
| 20260504023004 | 16 | 288 | 0.0 | 1.6 | 0.00 | 0.00 | 0.00 | 35 | 1004.4 |
| 20260504022521 | 17 | 288 | 0.0 | 0.0 | 0.00 | 0.00 | 0.00 | 35 | 1004.3 |
| 20260504021513 | 17 | 288 | 0.0 | 0.0 | 0.00 | 0.00 | 0.00 | 34 | 1004.2 |
| 20260504021506 | 17 | 288 | 0.0 | 1.6 | 0.00 | 0.00 | 0.00 | 34 | 1004.3 |
| 20260504020108 | 17 | 289 | 0.0 | 3.2 | 0.00 | 0.00 | 0.00 | 34 | 1004.3 |
| 20260504015355 | 17 | 288 | 0.0 | 1.6 | 0.00 | 0.00 | 0.00 | 33 | 1004.2 |
| 20260504014502 | 17 | 290 | 0.0 | 3.2 | 0.00 | 0.00 | 0.00 | 33 | 1004.2 |
| 20260504014339 | 17 | 290 | 0.0 | 0.0 | 0.00 | 0.00 | 0.00 | 33 | 1004.1 |
| 20260504013102 | 17 | 293 | 0.0 | 3.2 | 0.00 | 0.00 | 0.00 | 32 | 1004.2 |
| 20260504012208 | 18 | 291 | 0.0 | 1.6 | 0.00 | 0.00 | 0.00 | 32 | 1004.1 |
| 20260504011503 | 18 | 291 | 0.0 | 3.2 | 0.00 | 0.00 | 0.00 | 31 | 1004.2 |
| 20260504011138 | 18 | 291 | 0.0 | 1.6 | 0.00 | 0.00 | 0.00 | 31 | 1004.1 |
| 20260504010133 | 18 | 292 | 0.0 | 3.2 | 0.00 | 0.00 | 0.00 | 30 | 1004.0 |
| 20260504010105 | 18 | 292 | 1.6 | 4.8 | 0.00 | 0.00 | 0.00 | 30 | 1004.1 |
| 20260504005127 | 19 | 294 | 1.6 | 4.8 | 0.00 | 0.00 | 0.00 | 30 | 1004.0 |
| 20260504004507 | 19 | 296 | 1.6 | 6.4 | 0.00 | 0.00 | 0.00 | 30 | 1004.1 |
| 20260504004118 | 19 | 288 | 1.6 | 4.8 | 0.00 | 0.00 | 0.00 | 30 | 1004.1 |
| 20260504003129 | 20 | 318 | 1.6 | 6.4 | 0.00 | 0.00 | 0.00 | 30 | 1004.1 |
| 20260504003003 | 19 | 294 | 1.6 | 4.8 | 0.00 | 0.00 | 0.00 | 30 | 1004.2 |
| 20260504002153 | 20 | 283 | 1.6 | 11.3 | 0.00 | 0.00 | 0.00 | 30 | 1004.1 |
| 20260504001507 | 20 | 294 | 1.6 | 6.4 | 0.00 | 0.00 | 0.00 | 30 | 1004.3 |
| 20260504001131 | 20 | 298 | 3.2 | 11.3 | 0.00 | 0.00 | 0.00 | 30 | 1004.2 |
| 20260504000141 | 20 | 280 | 1.6 | 8.0 | 0.00 | 0.00 | 0.00 | 30 | 1004.1 |
| 20260504000107 | 20 | 281 | 3.2 | 8.0 | 0.00 | 0.00 | 0.00 | 30 | 1004.2 |
| 20260503235141 | 20 | 300 | 1.6 | 9.7 | 0.00 | 0.00 | 0.00 | 29 | 1004.1 |
| 20260503234502 | 20 | 280 | 1.6 | 9.7 | 0.00 | 0.00 | 0.00 | 29 | 1004.2 |
| 20260503234147 | 20 | 311 | 3.2 | 16.1 | 0.00 | 0.00 | 0.00 | 29 | 1004.2 |
| 20260503233004 | 20 | 292 | 3.2 | 17.7 | 0.00 | 0.00 | 0.00 | 29 | 1004.3 |
| 20260503232041 | 20 | 349 | 3.2 | 11.3 | 0.00 | 0.00 | 0.00 | 29 | 1004.3 |
| 20260503231602 | 20 | 318 | 4.8 | 12.9 | 0.00 | 0.00 | 0.00 | 29 | 1004.5 |
| 20260503231043 | 20 | 308 | 3.2 | 16.1 | 0.00 | 0.00 | 0.00 | 29 | 1004.4 |
| 20260503230040 | 20 | 302 | 4.8 | 16.1 | 0.00 | 0.00 | 0.00 | 29 | 1004.3 |
| 20260503230003 | 20 | 306 | 6.4 | 17.7 | 0.00 | 0.00 | 0.00 | 29 | 1004.4 |
| 20260503224614 | 20 | 285 | 4.8 | 14.5 | 0.00 | 0.00 | 0.00 | 30 | 1004.3 |
| 20260503224004 | 21 | 272 | 1.6 | 12.9 | 0.00 | 0.00 | 0.00 | 30 | 1004.2 |
| 20260503223113 | 20 | 283 | 3.2 | 16.1 | 0.00 | 0.00 | 0.00 | 30 | 1004.2 |
| 20260503222951 | 21 | 290 | 4.8 | 17.7 | 0.00 | 0.00 | 0.00 | 30 | 1004.1 |
| 20260503221947 | 21 | 292 | 4.8 | 17.7 | 0.00 | 0.00 | 0.00 | 30 | 1004.2 |
| 20260503221503 | 20 | 329 | 8.0 | 17.7 | 0.00 | 0.00 | 0.00 | 30 | 1004.2 |
| 20260503220939 | 21 | 316 | 4.8 | 17.7 | 0.00 | 0.00 | 0.00 | 30 | 1004.2 |
| 20260503215933 | 21 | 295 | 3.2 | 17.7 | 0.00 | 0.00 | 0.00 | 31 | 1004.2 |
| 20260503214507 | 21 | 306 | 8.0 | 19.3 | 0.00 | 0.00 | 0.00 | 32 | 1004.3 |
| 20260503213752 | 21 | 319 | 6.4 | 16.1 | 0.00 | 0.00 | 0.00 | 32 | 1004.2 |
| 20260503213002 | 21 | 302 | 9.7 | 17.7 | 0.00 | 0.00 | 0.00 | 32 | 1004.4 |
| 20260503212748 | 21 | 278 | 3.2 | 16.1 | 0.00 | 0.00 | 0.00 | 32 | 1004.2 |
| 20260503211723 | 21 | 300 | 6.4 | 16.1 | 0.00 | 0.00 | 0.00 | 33 | 1004.5 |
| 20260503211603 | 21 | 275 | 8.0 | 17.7 | 0.00 | 0.00 | 0.00 | 33 | 1004.4 |
| 20260503210705 | 21 | 300 | 3.2 | 16.1 | 0.00 | 0.00 | 0.00 | 34 | 1004.3 |
| 20260503210003 | 21 | 300 | 3.2 | 17.7 | 0.00 | 0.00 | 0.00 | 34 | 1004.5 |
| 20260503205724 | 21 | 296 | 4.8 | 16.1 | 0.00 | 0.00 | 0.00 | 34 | 1004.6 |
| 20260503204655 | 21 | 259 | 4.8 | 16.1 | 0.00 | 0.00 | 0.00 | 34 | 1004.6 |
| 20260503204601 | 21 | 292 | 4.8 | 14.5 | 0.00 | 0.00 | 0.00 | 34 | 1004.6 |
| 20260503203102 | 21 | 289 | 6.4 | 17.7 | 0.00 | 0.00 | 0.00 | 34 | 1004.8 |
| 20260503202530 | 21 | 302 | 3.2 | 17.7 | 0.00 | 0.00 | 0.00 | 33 | 1004.7 |
| 20260503201522 | 21 | 304 | 4.8 | 17.7 | 0.00 | 0.00 | 0.00 | 34 | 1004.8 |
| 20260503200534 | 21 | 309 | 6.4 | 19.3 | 0.00 | 0.00 | 0.00 | 34 | 1004.9 |
| 20260503200003 | 21 | 33 | 9.7 | 20.9 | 0.00 | 0.00 | 0.00 | 34 | 1004.8 |
| 20260503195541 | 21 | 25 | 4.8 | 20.9 | 0.00 | 0.00 | 0.00 | 34 | 1004.9 |
| 20260503194624 | 20 | 303 | 11.3 | 22.5 | 0.00 | 0.00 | 0.00 | 35 | 1005.0 |
| 20260503194514 | 21 | 285 | 8.0 | 20.9 | 0.00 | 0.00 | 0.00 | 35 | 1005.0 |
| 20260503193456 | 21 | 286 | 4.8 | 16.1 | 0.00 | 0.00 | 0.00 | 36 | 1005.0 |
| 20260503193112 | 21 | 308 | 8.0 | 17.7 | 0.00 | 0.00 | 0.00 | 36 | 1005.0 |
| 20260503192429 | 21 | 262 | 3.2 | 24.1 | 0.00 | 0.00 | 0.00 | 37 | 1005.0 |
| 20260503191503 | 20 | 292 | 8.0 | 25.7 | 0.00 | 0.00 | 0.00 | 37 | 1005.0 |
| 20260503191437 | 21 | 290 | 8.0 | 24.1 | 0.00 | 0.00 | 0.00 | 37 | 1005.0 |
| 20260503190502 | 21 | 24 | 4.8 | 20.9 | 0.00 | 0.00 | 0.00 | 37 | 1005.1 |
| 20260503190106 | 21 | 5 | 9.7 | 22.5 | 0.00 | 0.00 | 0.00 | 38 | 1005.2 |
| 20260503184504 | 20 | 333 | 4.8 | 17.7 | 0.00 | 0.00 | 0.00 | 40 | 1005.2 |
| 20260503184341 | 20 | 294 | 4.8 | 19.3 | 0.00 | 0.00 | 0.00 | 41 | 1005.2 |
| 20260503183356 | 20 | 302 | 3.2 | 14.5 | 0.00 | 0.00 | 0.00 | 41 | 1005.3 |
| 20260503183002 | 20 | 272 | 1.6 | 16.1 | 0.00 | 0.00 | 0.00 | 42 | 1005.3 |
| 20260503182406 | 20 | 300 | 4.8 | 19.3 | 0.00 | 0.00 | 0.00 | 42 | 1005.3 |
| 20260503181609 | 20 | 268 | 4.8 | 20.9 | 0.00 | 0.00 | 0.00 | 42 | 1005.6 |
| 20260503181402 | 20 | 291 | 4.8 | 19.3 | 0.00 | 0.00 | 0.00 | 42 | 1005.5 |
| 20260503180345 | 20 | 316 | 4.8 | 17.7 | 0.00 | 0.00 | 0.00 | 43 | 1005.5 |
| 20260503175317 | 19 | 323 | 4.8 | 17.7 | 0.00 | 0.00 | 0.00 | 43 | 1005.5 |
| 20260503174621 | 20 | 318 | 4.8 | 22.5 | 0.00 | 0.00 | 0.00 | 44 | 1005.6 |
| 20260503174336 | 20 | 336 | 8.0 | 20.9 | 0.00 | 0.00 | 0.00 | 44 | 1005.5 |
| 20260503173324 | 19 | 301 | 6.4 | 24.1 | 0.00 | 0.00 | 0.00 | 45 | 1005.7 |
| 20260503173112 | 19 | 345 | 6.4 | 24.1 | 0.00 | 0.00 | 0.00 | 45 | 1005.6 |
| 20260503172348 | 19 | 25 | 6.4 | 24.1 | 0.00 | 0.00 | 0.00 | 46 | 1005.6 |
| 20260503171504 | 18 | 289 | 6.4 | 19.3 | 0.00 | 0.00 | 0.00 | 46 | 1005.7 |
| 20260503171412 | 18 | 292 | 4.8 | 16.1 | 0.00 | 0.00 | 0.00 | 46 | 1005.6 |
| 20260503170354 | 18 | 9 | 4.8 | 20.9 | 0.00 | 0.00 | 0.00 | 47 | 1005.6 |
| 20260503170114 | 18 | 344 | 3.2 | 16.1 | 0.00 | 0.00 | 0.00 | 47 | 1005.7 |
| 20260503160139 | 17 | 296 | 1.6 | 9.7 | 0.00 | 0.00 | 0.00 | 50 | 1005.4 |
| 20260503150216 | 15 | 238 | 1.6 | 8.0 | 0.00 | 0.00 | 0.00 | 52 | 1005.5 |
| 20260503150105 | 15 | 288 | 1.6 | 9.7 | 0.00 | 0.00 | 0.00 | 52 | 1005.6 |
| 20260503140103 | 13 | 259 | 1.6 | 16.1 | 0.00 | 0.00 | 0.00 | 54 | 1005.8 |
| 20260503131012 | 12 | 216 | 4.8 | 16.1 | 0.00 | 0.00 | 0.00 | 55 | 1005.8 |
| 20260503130103 | 12 | 208 | 6.4 | 16.1 | 0.00 | 0.00 | 0.00 | 56 | 1005.9 |
| 20260503100104 | 12 | 213 | 11.3 | 22.5 | 0.00 | 0.00 | 0.00 | 51 | 1006.2 |
| 20260503072525 | 12 | 217 | 1.6 | 11.3 | 0.00 | 0.00 | 0.00 | 48 | 1008.8 |
| 20260503071531 | 12 | 245 | 1.6 | 9.7 | 0.00 | 0.00 | 0.00 | 48 | 1008.9 |
| 20260503071503 | 12 | 227 | 1.6 | 11.3 | 0.00 | 0.00 | 0.00 | 48 | 1008.9 |
| 20260503054603 | 12 | 199 | 4.8 | 14.5 | 0.00 | 0.00 | 0.00 | 47 | 1009.9 |
| 20260503054416 | 13 | 198 | 3.2 | 14.5 | 0.00 | 0.00 | 0.00 | 47 | 1009.8 |
| 20260503053437 | 12 | 222 | 1.6 | 9.7 | 0.00 | 0.00 | 0.00 | 47 | 1010.1 |
| 20260503053103 | 12 | 196 | 1.6 | 8.0 | 0.00 | 0.00 | 0.00 | 47 | 1010.1 |
| 20260503052444 | 13 | 218 | 1.6 | 9.7 | 0.00 | 0.00 | 0.00 | 47 | 1010.2 |
| 20260503051502 | 13 | 199 | 1.6 | 9.7 | 0.00 | 0.00 | 0.00 | 46 | 1010.2 |
| 20260503051439 | 13 | 198 | 3.2 | 8.0 | 0.00 | 0.00 | 0.00 | 46 | 1010.2 |
| 20260503050501 | 13 | 186 | 1.6 | 6.4 | 0.00 | 0.00 | 0.00 | 45 | 1010.4 |
| 20260503045512 | 13 | 203 | 1.6 | 6.4 | 0.00 | 0.00 | 0.00 | 45 | 1010.5 |
| 20260503044524 | 13 | 196 | 0.0 | 4.8 | 0.00 | 0.00 | 0.00 | 45 | 1010.7 |
| 20260503044503 | 13 | 184 | 1.6 | 6.4 | 0.00 | 0.00 | 0.00 | 45 | 1010.7 |
| 20260503043515 | 13 | 199 | 0.0 | 3.2 | 0.00 | 0.00 | 0.00 | 45 | 1010.7 |
| 20260503043004 | 13 | 197 | 0.0 | 4.8 | 0.00 | 0.00 | 0.00 | 45 | 1010.9 |
| 20260503042538 | 13 | 238 | 0.0 | 3.2 | 0.00 | 0.00 | 0.00 | 45 | 1010.9 |
| 20260503041550 | 13 | 223 | 0.0 | 1.6 | 0.00 | 0.00 | 0.00 | 44 | 1011.1 |
| 20260503041503 | 13 | 223 | 0.0 | 3.2 | 0.00 | 0.00 | 0.00 | 44 | 1011.1 |
| 20260503040524 | 13 | 226 | 0.0 | 1.6 | 0.00 | 0.00 | 0.00 | 44 | 1011.2 |
| 20260503040008 | 13 | 244 | 0.0 | 3.2 | 0.00 | 0.00 | 0.00 | 44 | 1011.3 |